Location: Newark
(44.9333°N, 0.5667°E)
Time: 22:45:56
(UTC+00:00)

N. Korean satellite - Pass Details

Date: 20 December 2019
Orbit: 454 x 507 km, 97.2° (Epoch: 21 January)

Event Time Altitude Azimuth Distance (km) Brightness Sun altitude
Rises 05:26:24 0° 19° (NNE) 2,508 10.3 -21.2°
Reaches altitude 10° 05:28:33 10° 28° (NNE) 1,620 9.4 -20.8°
Maximum altitude 05:31:49 38° 98° (E) 712 7.9 -20.3°
Drops below altitude 10° 05:35:02 10° 168° (SSE) 1,591 9.5 -19.7°
Sets 05:37:08 0° 177° (S) 2,456 10.4 -19.4°
